THOR ABLESTAR DEB, 320

Orbit data source: Space-Track

THOR ABLESTAR DEB, 320 is space debris in LEO originally from a launch on Thu, 29 Jun 1961 UTC launched from the Air Force Eastern Test Range (AFETR). Debris objects in space refer to the collection of defunct objects orbiting the Earth. Examples of debris include non-operational satellites, rocket bodies, and fragments generated from explosions, collisions, or faulty payload assembly.

Loading next visibility...
Identifier
320, 1961-015CW
Orbit
LEO
Last TLE update
2 days ago
Origin
Manufacturer
Unknown
Mission
Spacecraft
Bus & Motor
Unknown
Mass
Unknown
Launch date (UTC)
1961-06-29 (64 years ago)
Launch vehicle
Unknown
Launch site
Air Force Eastern Test Range (AFETR)
Object type
Payload
Rocket body
Debris
Shape & HBR
Unknown
Radar Cross Section
Medium (>0.1 m² and <1 m²)

Expand to show TLE details & history

TLE from 2 days ago
0 THOR ABLESTAR DEB
1   320U 61015CW  25108.51195865  .00001200  00000-0  45825-3 0  9994
2   320  66.9051  66.5326 0136150 347.2694  12.4977 14.29136527307665
Epoch: 2025-04-18T12:17Z
Definitive object data (Epoch: 2025-04-18T12:17:13.227Z)
Latitude
-0.00007°
Longitude
35.35901°
Altitude
701.451 km
Speed
7.555 km/s
True Right ascension
04h 26m 07s
True Declination
0° 00' 00"
Sunlit
Object was in daylight at TLE epoch
Visualization TLE readout
Latitude
-40.42719°
Longitude
10.21211°
Altitude
724.87 km
Speed
7.536 km/s
Apparent Right ascension
23h 34m 36s
Apparent Declination
-53° 15' 46"
Sunlit
Object is in daylight
Visualization observer readout
Local Sidereal Time
07:55:07
Azimuth
231.166° WSW
Elevation
-51.097°
Doppler factor
1
Orbital elements
Apogee altitude
890.604 km
Perigee altitude
695.335 km
Semi-major axis
7,171.107 km
Eccentricity
0.013615
Inclination
66.9051°
RAAN
66.5326°
Arg. of periapsis
347.2694°
True anomaly
12.84102°
Mean anomaly
12.4977°
Eccentric anomaly
12.66878°
Mean motion
3.57408 °/min
BSTAR
0.00045825
Orbital period
100.73 mins
Loading maneuver chart data...
Loading SW <> Apogee altitude chart data...

THOR ABLESTAR DEB Visibility forecast

Observer location: undefined°, undefined°

Span
Click to sort rows by Start time (UTC) header in descending order
Start Az.
Max El. time (UTC)
Max El. Az.
Max El.
End time (UTC)
End Az.
9 mins2025-04-20 06:48:05.143Z350.264° N2025-04-20 06:53:05.143Z59.948° ENE29.472°2025-04-20 06:57:05.143Z111.996° ESE
9 mins2025-04-20 08:32:05.143Z310.218° NW2025-04-20 08:36:05.143Z254.3° W31.914°2025-04-20 08:41:05.143Z185.608° SSW
6 mins2025-04-20 21:32:05.143Z152.364° SSE2025-04-20 21:34:05.143Z118.384° SE25.837°2025-04-20 21:38:05.143Z55.465° ENE
7 mins2025-04-20 23:15:05.143Z255.222° W2025-04-20 23:18:05.143Z312.655° NW29.594°2025-04-20 23:22:05.143Z9.851° NNE
|